owner,sensor,date,latitude,longitude,vertical_datum,sea_water_practical_salinity,qcFlag 
SCCF RECON,ioos:station:SCCF:18:1,2017-03-01T00:00:00Z,26.6955,-81.8138,1.59,3.89,1111122 
SCCF RECON,ioos:station:SCCF:18:1,2017-03-01T01:00:00Z,26.6955,-81.8138,1.5,3.46,1111122 
SCCF RECON,ioos:station:SCCF:18:1,2017-03-01T02:00:00Z,26.6955,-81.8138,1.43,3.05,1111122 
SCCF RECON,ioos:station:SCCF:18:1,2017-03-01T03:00:00Z,26.6955,-81.8138,1.38,3.03,1111122 
SCCF RECON,ioos:station:SCCF:18:1,2017-03-01T04:00:00Z,26.6955,-81.8138,1.34,2.98,1111122 
SCCF RECON,ioos:station:SCCF:18:1,2017-03-01T05:00:00Z,26.6955,-81.8138,1.299,2.96,1111122 
SCCF RECON,ioos:station:SCCF:18:1,2017-03-01T06:00:00Z,26.6955,-81.8138,1.302,2.94,1111122 
SCCF RECON,ioos:station:SCCF:18:1,2017-03-01T07:00:00Z,26.6955,-81.8138,1.39,3.81,1111122 
SCCF RECON,ioos:station:SCCF:18:1,2017-03-01T08:00:00Z,26.6955,-81.8138,1.48,3.72,1111122 
SCCF RECON,ioos:station:SCCF:18:1,2017-03-01T09:00:00Z,26.6955,-81.8138,1.53,3.8,1111122 
SCCF RECON,ioos:station:SCCF:18:1,2017-03-01T10:00:00Z,26.6955,-81.8138,1.57,3.95,1111122 
SCCF RECON,ioos:station:SCCF:18:1,2017-03-01T11:00:00Z,26.6955,-81.8138,1.61,3.57,1111122 
SCCF RECON,ioos:station:SCCF:18:1,2017-03-01T12:00:00Z,26.6955,-81.8138,1.58,3.69,1111122 
SCCF RECON,ioos:station:SCCF:18:1,2017-03-01T13:00:00Z,26.6955,-81.8138,1.508,3.22,1111122 
SCCF RECON,ioos:station:SCCF:18:1,2017-03-01T14:00:00Z,26.6955,-81.8138,1.436,3.12,1111122 
SCCF RECON,ioos:station:SCCF:18:1,2017-03-01T15:00:00Z,26.6955,-81.8138,1.4,3.08,1111122 
SCCF RECON,ioos:station:SCCF:18:1,2017-03-01T16:00:00Z,26.6955,-81.8138,1.355,3.05,1111122 
SCCF RECON,ioos:station:SCCF:18:1,2017-03-01T17:00:00Z,26.6955,-81.8138,1.3,3.0,1111122 
SCCF RECON,ioos:station:SCCF:18:1,2017-03-01T18:00:00Z,26.6955,-81.8138,1.28,3.02,1111122 
SCCF RECON,ioos:station:SCCF:18:1,2017-03-01T19:00:00Z,26.6955,-81.8138,1.349,3.53,1111122 
SCCF RECON,ioos:station:SCCF:18:1,2017-03-01T20:00:00Z,26.6955,-81.8138,1.44,3.54,1111122 
SCCF RECON,ioos:station:SCCF:18:1,2017-03-01T21:00:00Z,26.6955,-81.8138,1.512,4.06,1111122 
SCCF RECON,ioos:station:SCCF:18:1,2017-03-01T22:00:00Z,26.6955,-81.8138,1.58,4.16,1111122 
SCCF RECON,ioos:station:SCCF:18:1,2017-03-01T23:00:00Z,26.6955,-81.8138,1.59,4.2,1111122 
SCCF RECON,ioos:station:SCCF:18:1,2017-03-02T00:00:00Z,26.6955,-81.8138,1.591,4.14,1111122 
SCCF RECON,ioos:station:SCCF:18:1,2017-03-02T01:00:00Z,26.6955,-81.8138,1.52,4.3,1111122 
SCCF RECON,ioos:station:SCCF:18:1,2017-03-02T02:00:00Z,26.6955,-81.8138,1.445,3.28,1111122 
SCCF RECON,ioos:station:SCCF:18:1,2017-03-02T03:00:00Z,26.6955,-81.8138,1.38,3.6,1111122 
SCCF RECON,ioos:station:SCCF:18:1,2017-03-02T04:00:00Z,26.6955,-81.8138,1.34,3.41,1111122 
SCCF RECON,ioos:station:SCCF:18:1,2017-03-02T05:00:00Z,26.6955,-81.8138,1.29,3.24,1111122 
SCCF RECON,ioos:station:SCCF:18:1,2017-03-02T06:00:00Z,26.6955,-81.8138,1.25,3.15,1111122 
SCCF RECON,ioos:station:SCCF:18:1,2017-03-02T07:00:00Z,26.6955,-81.8138,1.288,3.1,1111122 
SCCF RECON,ioos:station:SCCF:18:1,2017-03-02T08:00:00Z,26.6955,-81.8138,1.363,4.19,1111122 
SCCF RECON,ioos:station:SCCF:18:1,2017-03-02T09:00:00Z,26.6955,-81.8138,1.449,3.99,1111122 
SCCF RECON,ioos:station:SCCF:18:1,2017-03-02T10:00:00Z,26.6955,-81.8138,1.488,4.27,1111122 
SCCF RECON,ioos:station:SCCF:18:1,2017-03-02T11:00:00Z,26.6955,-81.8138,1.53,4.26,1111122 
SCCF RECON,ioos:station:SCCF:18:1,2017-03-02T12:00:00Z,26.6955,-81.8138,1.56,4.33,1111122 
SCCF RECON,ioos:station:SCCF:18:1,2017-03-02T13:00:00Z,26.6955,-81.8138,1.53,3.94,1111122 
SCCF RECON,ioos:station:SCCF:18:1,2017-03-02T14:00:00Z,26.6955,-81.8138,1.452,3.34,1111122 
SCCF RECON,ioos:station:SCCF:18:1,2017-03-02T15:00:00Z,26.6955,-81.8138,1.396,3.35,1111122 
SCCF RECON,ioos:station:SCCF:18:1,2017-03-02T16:00:00Z,26.6955,-81.8138,1.364,3.32,1111122 
SCCF RECON,ioos:station:SCCF:18:1,2017-03-02T17:00:00Z,26.6955,-81.8138,1.331,3.48,1111122 
SCCF RECON,ioos:station:SCCF:18:1,2017-03-02T18:00:00Z,26.6955,-81.8138,1.312,3.76,1111122 
SCCF RECON,ioos:station:SCCF:18:1,2017-03-02T19:00:00Z,26.6955,-81.8138,1.39,3.48,1111122 
SCCF RECON,ioos:station:SCCF:18:1,2017-03-02T20:00:00Z,26.6955,-81.8138,1.458,4.26,1111122 
SCCF RECON,ioos:station:SCCF:18:1,2017-03-02T21:00:00Z,26.6955,-81.8138,1.53,4.34,1111122 
SCCF RECON,ioos:station:SCCF:18:1,2017-03-02T22:00:00Z,26.6955,-81.8138,1.59,4.46,1111122 
SCCF RECON,ioos:station:SCCF:18:1,2017-03-02T23:00:00Z,26.6955,-81.8138,1.63,4.71,1111122 
SCCF RECON,ioos:station:SCCF:18:1,2017-03-03T00:00:00Z,26.6955,-81.8138,1.653,5.05,1111122 
SCCF RECON,ioos:station:SCCF:18:1,2017-03-03T01:00:00Z,26.6955,-81.8138,1.61,4.81,1111122 
SCCF RECON,ioos:station:SCCF:18:1,2017-03-03T02:00:00Z,26.6955,-81.8138,1.53,3.94,1111122 
SCCF RECON,ioos:station:SCCF:18:1,2017-03-03T03:00:00Z,26.6955,-81.8138,1.47,3.78,1111122 
SCCF RECON,ioos:station:SCCF:18:1,2017-03-03T04:00:00Z,26.6955,-81.8138,1.42,4.0,1111122 
SCCF RECON,ioos:station:SCCF:18:1,2017-03-03T05:00:00Z,26.6955,-81.8138,1.368,3.51,1111122 
SCCF RECON,ioos:station:SCCF:18:1,2017-03-03T06:00:00Z,26.6955,-81.8138,1.31,3.54,1111122 
SCCF RECON,ioos:station:SCCF:18:1,2017-03-03T07:00:00Z,26.6955,-81.8138,1.231,3.56,1111122 
SCCF RECON,ioos:station:SCCF:18:1,2017-03-03T08:00:00Z,26.6955,-81.8138,1.19,3.35,1111122 
SCCF RECON,ioos:station:SCCF:18:1,2017-03-03T09:00:00Z,26.6955,-81.8138,1.205,3.33,1111122 
SCCF RECON,ioos:station:SCCF:18:1,2017-03-03T10:00:00Z,26.6955,-81.8138,1.276,3.9,1111122 
SCCF RECON,ioos:station:SCCF:18:1,2017-03-03T11:00:00Z,26.6955,-81.8138,1.36,3.99,1111122 
SCCF RECON,ioos:station:SCCF:18:1,2017-03-03T12:00:00Z,26.6955,-81.8138,1.398,3.82,1111122 
SCCF RECON,ioos:station:SCCF:18:1,2017-03-03T13:00:00Z,26.6955,-81.8138,1.38,3.6,1111122 
SCCF RECON,ioos:station:SCCF:18:1,2017-03-03T14:00:00Z,26.6955,-81.8138,1.31,3.44,1111122 
SCCF RECON,ioos:station:SCCF:18:1,2017-03-03T15:00:00Z,26.6955,-81.8138,1.25,3.4,1111122 
SCCF RECON,ioos:station:SCCF:18:1,2017-03-03T16:00:00Z,26.6955,-81.8138,1.199,3.46,1111122 
SCCF RECON,ioos:station:SCCF:18:1,2017-03-03T17:00:00Z,26.6955,-81.8138,1.157,3.23,1111122 
SCCF RECON,ioos:station:SCCF:18:1,2017-03-03T18:00:00Z,26.6955,-81.8138,1.11,3.29,1111122 
SCCF RECON,ioos:station:SCCF:18:1,2017-03-03T19:00:00Z,26.6955,-81.8138,1.07,3.36,1111122 
SCCF RECON,ioos:station:SCCF:18:1,2017-03-03T20:00:00Z,26.6955,-81.8138,1.069,3.34,1111122 
SCCF RECON,ioos:station:SCCF:18:1,2017-03-03T21:00:00Z,26.6955,-81.8138,1.117,3.3,1111122 
SCCF RECON,ioos:station:SCCF:18:1,2017-03-03T22:00:00Z,26.6955,-81.8138,1.172,3.46,1111122 
SCCF RECON,ioos:station:SCCF:18:1,2017-03-03T23:00:00Z,26.6955,-81.8138,1.221,3.23,1111122 
SCCF RECON,ioos:station:SCCF:18:1,2017-03-04T00:00:00Z,26.6955,-81.8138,1.262,3.15,1111122 
SCCF RECON,ioos:station:SCCF:18:1,2017-03-04T01:00:00Z,26.6955,-81.8138,1.317,3.95,1111122 
SCCF RECON,ioos:station:SCCF:18:1,2017-03-04T02:00:00Z,26.6955,-81.8138,1.33,3.47,1111122 
SCCF RECON,ioos:station:SCCF:18:1,2017-03-04T03:00:00Z,26.6955,-81.8138,1.289,3.65,1111122 
SCCF RECON,ioos:station:SCCF:18:1,2017-03-04T04:00:00Z,26.6955,-81.8138,1.23,3.25,1111122 
SCCF RECON,ioos:station:SCCF:18:1,2017-03-04T05:00:00Z,26.6955,-81.8138,1.171,3.23,1111122 
SCCF RECON,ioos:station:SCCF:18:1,2017-03-04T06:00:00Z,26.6955,-81.8138,1.14,3.24,1111122 
SCCF RECON,ioos:station:SCCF:18:1,2017-03-04T07:00:00Z,26.6955,-81.8138,1.1,3.26,1111122 
SCCF RECON,ioos:station:SCCF:18:1,2017-03-04T08:00:00Z,26.6955,-81.8138,1.064,3.19,1111122 
SCCF RECON,ioos:station:SCCF:18:1,2017-03-04T09:00:00Z,26.6955,-81.8138,1.02,3.2,1111122 
SCCF RECON,ioos:station:SCCF:18:1,2017-03-04T10:00:00Z,26.6955,-81.8138,0.99,3.27,1111122 
SCCF RECON,ioos:station:SCCF:18:1,2017-03-04T11:00:00Z,26.6955,-81.8138,0.991,3.27,1111122 
SCCF RECON,ioos:station:SCCF:18:1,2017-03-04T12:00:00Z,26.6955,-81.8138,1.038,3.25,1111122 
SCCF RECON,ioos:station:SCCF:18:1,2017-03-04T13:00:00Z,26.6955,-81.8138,1.08,3.41,1111122 
SCCF RECON,ioos:station:SCCF:18:1,2017-03-04T14:00:00Z,26.6955,-81.8138,1.095,3.26,1111122 
SCCF RECON,ioos:station:SCCF:18:1,2017-03-04T15:00:00Z,26.6955,-81.8138,1.08,3.16,1111122 
SCCF RECON,ioos:station:SCCF:18:1,2017-03-04T16:00:00Z,26.6955,-81.8138,1.046,3.23,1111122 
SCCF RECON,ioos:station:SCCF:18:1,2017-03-04T17:00:00Z,26.6955,-81.8138,0.989,3.28,1111122 
SCCF RECON,ioos:station:SCCF:18:1,2017-03-04T18:00:00Z,26.6955,-81.8138,0.949,3.23,1111122 
SCCF RECON,ioos:station:SCCF:18:1,2017-03-04T19:00:00Z,26.6955,-81.8138,0.94,3.05,1111122 
SCCF RECON,ioos:station:SCCF:18:1,2017-03-04T20:00:00Z,26.6955,-81.8138,0.932,3.02,1111122 
SCCF RECON,ioos:station:SCCF:18:1,2017-03-04T21:00:00Z,26.6955,-81.8138,0.975,3.07,1111122 
SCCF RECON,ioos:station:SCCF:18:1,2017-03-04T22:00:00Z,26.6955,-81.8138,1.021,3.2,1111122 
SCCF RECON,ioos:station:SCCF:18:1,2017-03-04T23:00:00Z,26.6955,-81.8138,1.083,3.16,1111122 
SCCF RECON,ioos:station:SCCF:18:1,2017-03-05T00:00:00Z,26.6955,-81.8138,1.135,3.2,1111122 
SCCF RECON,ioos:station:SCCF:18:1,2017-03-05T01:00:00Z,26.6955,-81.8138,1.2,3.22,1111122 
SCCF RECON,ioos:station:SCCF:18:1,2017-03-05T02:00:00Z,26.6955,-81.8138,1.26,3.39,1111122 
SCCF RECON,ioos:station:SCCF:18:1,2017-03-05T03:00:00Z,26.6955,-81.8138,1.27,3.2,1111122 
SCCF RECON,ioos:station:SCCF:18:1,2017-03-05T04:00:00Z,26.6955,-81.8138,1.23,3.4,1111122 
SCCF RECON,ioos:station:SCCF:18:1,2017-03-05T05:00:00Z,26.6955,-81.8138,1.18,3.42,1111122 
SCCF RECON,ioos:station:SCCF:18:1,2017-03-05T06:00:00Z,26.6955,-81.8138,1.135,3.34,1111122 
SCCF RECON,ioos:station:SCCF:18:1,2017-03-05T07:00:00Z,26.6955,-81.8138,1.1,3.19,1111122 
SCCF RECON,ioos:station:SCCF:18:1,2017-03-05T08:00:00Z,26.6955,-81.8138,1.06,3.19,1111122 
SCCF RECON,ioos:station:SCCF:18:1,2017-03-05T09:00:00Z,26.6955,-81.8138,1.025,3.24,1111122 
SCCF RECON,ioos:station:SCCF:18:1,2017-03-05T10:00:00Z,26.6955,-81.8138,1.005,3.21,1111122 
SCCF RECON,ioos:station:SCCF:18:1,2017-03-05T11:00:00Z,26.6955,-81.8138,1.034,3.21,1111122 
SCCF RECON,ioos:station:SCCF:18:1,2017-03-05T12:00:00Z,26.6955,-81.8138,1.1,3.63,1111122 
SCCF RECON,ioos:station:SCCF:18:1,2017-03-05T13:00:00Z,26.6955,-81.8138,1.16,3.3,1111122 
SCCF RECON,ioos:station:SCCF:18:1,2017-03-05T14:00:00Z,26.6955,-81.8138,1.2,3.28,1111122 
SCCF RECON,ioos:station:SCCF:18:1,2017-03-05T15:00:00Z,26.6955,-81.8138,1.211,3.37,1111122 
SCCF RECON,ioos:station:SCCF:18:1,2017-03-05T16:00:00Z,26.6955,-81.8138,1.205,3.14,1111122 
SCCF RECON,ioos:station:SCCF:18:1,2017-03-05T17:00:00Z,26.6955,-81.8138,1.159,3.25,1111122 
SCCF RECON,ioos:station:SCCF:18:1,2017-03-05T18:00:00Z,26.6955,-81.8138,1.116,3.29,1111122 
SCCF RECON,ioos:station:SCCF:18:1,2017-03-05T19:00:00Z,26.6955,-81.8138,1.082,3.15,1111122 
SCCF RECON,ioos:station:SCCF:18:1,2017-03-05T20:00:00Z,26.6955,-81.8138,1.074,3.09,1111122 
SCCF RECON,ioos:station:SCCF:18:1,2017-03-05T21:00:00Z,26.6955,-81.8138,1.11,3.14,1111122 
SCCF RECON,ioos:station:SCCF:18:1,2017-03-05T22:00:00Z,26.6955,-81.8138,1.153,3.21,1111122 
SCCF RECON,ioos:station:SCCF:18:1,2017-03-05T23:00:00Z,26.6955,-81.8138,1.206,3.23,1111122 
SCCF RECON,ioos:station:SCCF:18:1,2017-03-06T00:00:00Z,26.6955,-81.8138,1.269,3.42,1111122 
SCCF RECON,ioos:station:SCCF:18:1,2017-03-06T01:00:00Z,26.6955,-81.8138,1.345,3.82,1111122 
SCCF RECON,ioos:station:SCCF:18:1,2017-03-06T02:00:00Z,26.6955,-81.8138,1.412,3.64,1111122 
SCCF RECON,ioos:station:SCCF:18:1,2017-03-06T03:00:00Z,26.6955,-81.8138,1.45,3.6,1111122 
SCCF RECON,ioos:station:SCCF:18:1,2017-03-06T04:00:00Z,26.6955,-81.8138,1.44,3.61,1111122 
SCCF RECON,ioos:station:SCCF:18:1,2017-03-06T05:00:00Z,26.6955,-81.8138,1.39,3.45,1111122 
SCCF RECON,ioos:station:SCCF:18:1,2017-03-06T06:00:00Z,26.6955,-81.8138,1.33,3.41,1111122 
SCCF RECON,ioos:station:SCCF:18:1,2017-03-06T07:00:00Z,26.6955,-81.8138,1.27,3.27,1111122 
SCCF RECON,ioos:station:SCCF:18:1,2017-03-06T08:00:00Z,26.6955,-81.8138,1.23,3.18,1111122 
SCCF RECON,ioos:station:SCCF:18:1,2017-03-06T09:00:00Z,26.6955,-81.8138,1.19,3.13,1111122 
SCCF RECON,ioos:station:SCCF:18:1,2017-03-06T10:00:00Z,26.6955,-81.8138,1.14,3.12,1111122 
SCCF RECON,ioos:station:SCCF:18:1,2017-03-06T11:00:00Z,26.6955,-81.8138,1.11,3.02,1111122 
SCCF RECON,ioos:station:SCCF:18:1,2017-03-06T12:00:00Z,26.6955,-81.8138,1.114,2.99,1111122 
SCCF RECON,ioos:station:SCCF:18:1,2017-03-06T13:00:00Z,26.6955,-81.8138,1.17,3.25,1111122 
SCCF RECON,ioos:station:SCCF:18:1,2017-03-06T14:00:00Z,26.6955,-81.8138,1.23,3.22,1111122 
SCCF RECON,ioos:station:SCCF:18:1,2017-03-06T15:00:00Z,26.6955,-81.8138,1.268,3.29,1111122 
SCCF RECON,ioos:station:SCCF:18:1,2017-03-06T16:00:00Z,26.6955,-81.8138,1.286,2.95,1111122 
SCCF RECON,ioos:station:SCCF:18:1,2017-03-06T17:00:00Z,26.6955,-81.8138,1.31,3.02,1111122 
SCCF RECON,ioos:station:SCCF:18:1,2017-03-06T18:00:00Z,26.6955,-81.8138,1.321,2.92,1111122 
SCCF RECON,ioos:station:SCCF:18:1,2017-03-06T19:00:00Z,26.6955,-81.8138,1.31,3.07,1111122 
SCCF RECON,ioos:station:SCCF:18:1,2017-03-06T20:00:00Z,26.6955,-81.8138,1.29,2.98,1111122 
SCCF RECON,ioos:station:SCCF:18:1,2017-03-06T21:00:00Z,26.6955,-81.8138,1.298,3.07,1111122 
SCCF RECON,ioos:station:SCCF:18:1,2017-03-06T22:00:00Z,26.6955,-81.8138,1.316,3.05,1111122 
SCCF RECON,ioos:station:SCCF:18:1,2017-03-06T23:00:00Z,26.6955,-81.8138,1.378,3.4,1111122 
SCCF RECON,ioos:station:SCCF:18:1,2017-03-07T00:00:00Z,26.6955,-81.8138,1.446,3.59,1111122 
SCCF RECON,ioos:station:SCCF:18:1,2017-03-07T01:00:00Z,26.6955,-81.8138,1.519,3.61,1111122 
SCCF RECON,ioos:station:SCCF:18:1,2017-03-07T02:00:00Z,26.6955,-81.8138,1.564,3.06,1111122 
SCCF RECON,ioos:station:SCCF:18:1,2017-03-07T03:00:00Z,26.6955,-81.8138,1.61,3.14,1111122 
SCCF RECON,ioos:station:SCCF:18:1,2017-03-07T04:00:00Z,26.6955,-81.8138,1.629,3.15,1111122 
SCCF RECON,ioos:station:SCCF:18:1,2017-03-07T05:00:00Z,26.6955,-81.8138,1.58,3.35,1111122 
SCCF RECON,ioos:station:SCCF:18:1,2017-03-07T06:00:00Z,26.6955,-81.8138,1.5,2.99,1111122 
SCCF RECON,ioos:station:SCCF:18:1,2017-03-07T07:00:00Z,26.6955,-81.8138,1.439,2.99,1111122 
SCCF RECON,ioos:station:SCCF:18:1,2017-03-07T08:00:00Z,26.6955,-81.8138,1.39,2.85,1111122 
SCCF RECON,ioos:station:SCCF:18:1,2017-03-07T09:00:00Z,26.6955,-81.8138,1.34,2.8,1111122 
SCCF RECON,ioos:station:SCCF:18:1,2017-03-07T10:00:00Z,26.6955,-81.8138,1.29,2.71,1111122 
SCCF RECON,ioos:station:SCCF:18:1,2017-03-07T11:00:00Z,26.6955,-81.8138,1.25,2.7,1111122 
SCCF RECON,ioos:station:SCCF:18:1,2017-03-07T12:00:00Z,26.6955,-81.8138,1.23,2.61,1111122 
SCCF RECON,ioos:station:SCCF:18:1,2017-03-07T13:00:00Z,26.6955,-81.8138,1.23,2.58,1111122 
SCCF RECON,ioos:station:SCCF:18:1,2017-03-07T14:00:00Z,26.6955,-81.8138,1.27,2.71,1111122 
SCCF RECON,ioos:station:SCCF:18:1,2017-03-07T15:00:00Z,26.6955,-81.8138,1.319,3.05,1111122 
SCCF RECON,ioos:station:SCCF:18:1,2017-03-07T16:00:00Z,26.6955,-81.8138,1.37,2.88,1111122 
SCCF RECON,ioos:station:SCCF:18:1,2017-03-07T17:00:00Z,26.6955,-81.8138,1.409,2.96,1111122 
SCCF RECON,ioos:station:SCCF:18:1,2017-03-07T18:00:00Z,26.6955,-81.8138,1.43,2.62,1111122 
SCCF RECON,ioos:station:SCCF:18:1,2017-03-07T19:00:00Z,26.6955,-81.8138,1.448,2.54,1111122 
SCCF RECON,ioos:station:SCCF:18:1,2017-03-07T20:00:00Z,26.6955,-81.8138,1.422,2.62,1111122 
SCCF RECON,ioos:station:SCCF:18:1,2017-03-07T21:00:00Z,26.6955,-81.8138,1.41,2.69,1111122 
SCCF RECON,ioos:station:SCCF:18:1,2017-03-07T22:00:00Z,26.6955,-81.8138,1.44,3.11,1111122 
SCCF RECON,ioos:station:SCCF:18:1,2017-03-07T23:00:00Z,26.6955,-81.8138,1.49,3.28,1111122 
SCCF RECON,ioos:station:SCCF:18:1,2017-03-08T00:00:00Z,26.6955,-81.8138,1.53,2.74,1111122 
SCCF RECON,ioos:station:SCCF:18:1,2017-03-08T01:00:00Z,26.6955,-81.8138,1.564,2.93,1111122 
SCCF RECON,ioos:station:SCCF:18:1,2017-03-08T02:00:00Z,26.6955,-81.8138,1.61,3.56,1111122 
SCCF RECON,ioos:station:SCCF:18:1,2017-03-08T03:00:00Z,26.6955,-81.8138,1.67,3.83,1111122 
SCCF RECON,ioos:station:SCCF:18:1,2017-03-08T04:00:00Z,26.6955,-81.8138,1.711,3.69,1111122 
SCCF RECON,ioos:station:SCCF:18:1,2017-03-08T05:00:00Z,26.6955,-81.8138,1.741,3.93,1111122 
SCCF RECON,ioos:station:SCCF:18:1,2017-03-08T06:00:00Z,26.6955,-81.8138,1.711,3.23,1111122 
SCCF RECON,ioos:station:SCCF:18:1,2017-03-08T07:00:00Z,26.6955,-81.8138,1.63,2.5,1111122 
SCCF RECON,ioos:station:SCCF:18:1,2017-03-08T08:00:00Z,26.6955,-81.8138,1.55,2.48,1111122 
SCCF RECON,ioos:station:SCCF:18:1,2017-03-08T09:00:00Z,26.6955,-81.8138,1.49,2.32,1111122 
SCCF RECON,ioos:station:SCCF:18:1,2017-03-08T10:00:00Z,26.6955,-81.8138,1.442,2.15,1111122 
SCCF RECON,ioos:station:SCCF:18:1,2017-03-08T11:00:00Z,26.6955,-81.8138,1.39,2.19,1111122 
SCCF RECON,ioos:station:SCCF:18:1,2017-03-08T12:00:00Z,26.6955,-81.8138,1.34,2.21,1111122 
SCCF RECON,ioos:station:SCCF:18:1,2017-03-08T13:00:00Z,26.6955,-81.8138,1.299,2.21,1111122 
SCCF RECON,ioos:station:SCCF:18:1,2017-03-08T14:00:00Z,26.6955,-81.8138,1.28,2.19,1111122 
SCCF RECON,ioos:station:SCCF:18:1,2017-03-08T15:00:00Z,26.6955,-81.8138,1.302,2.16,1111122 
SCCF RECON,ioos:station:SCCF:18:1,2017-03-08T16:00:00Z,26.6955,-81.8138,1.37,2.38,1111122 
SCCF RECON,ioos:station:SCCF:18:1,2017-03-08T17:00:00Z,26.6955,-81.8138,1.42,2.49,1111122 
SCCF RECON,ioos:station:SCCF:18:1,2017-03-08T18:00:00Z,26.6955,-81.8138,1.44,2.57,1111122 
SCCF RECON,ioos:station:SCCF:18:1,2017-03-08T19:00:00Z,26.6955,-81.8138,1.448,2.68,1111122 
SCCF RECON,ioos:station:SCCF:18:1,2017-03-08T20:00:00Z,26.6955,-81.8138,1.472,3.05,1111122 
SCCF RECON,ioos:station:SCCF:18:1,2017-03-08T21:00:00Z,26.6955,-81.8138,1.48,2.79,1111122 
SCCF RECON,ioos:station:SCCF:18:1,2017-03-08T22:00:00Z,26.6955,-81.8138,1.47,2.57,1111122 
SCCF RECON,ioos:station:SCCF:18:1,2017-03-08T23:00:00Z,26.6955,-81.8138,1.44,2.59,1111122 
SCCF RECON,ioos:station:SCCF:18:1,2017-03-09T00:00:00Z,26.6955,-81.8138,1.411,2.42,1111122 
SCCF RECON,ioos:station:SCCF:18:1,2017-03-09T01:00:00Z,26.6955,-81.8138,1.413,2.57,1111122 
SCCF RECON,ioos:station:SCCF:18:1,2017-03-09T02:00:00Z,26.6955,-81.8138,1.46,2.47,1111122 
SCCF RECON,ioos:station:SCCF:18:1,2017-03-09T03:00:00Z,26.6955,-81.8138,1.533,2.7,1111122 
SCCF RECON,ioos:station:SCCF:18:1,2017-03-09T04:00:00Z,26.6955,-81.8138,1.598,3.29,1111122 
SCCF RECON,ioos:station:SCCF:18:1,2017-03-09T05:00:00Z,26.6955,-81.8138,1.63,3.46,1111122 
SCCF RECON,ioos:station:SCCF:18:1,2017-03-09T06:00:00Z,26.6955,-81.8138,1.667,3.51,1111122 
SCCF RECON,ioos:station:SCCF:18:1,2017-03-09T07:00:00Z,26.6955,-81.8138,1.66,3.21,1111122 
SCCF RECON,ioos:station:SCCF:18:1,2017-03-09T08:00:00Z,26.6955,-81.8138,1.59,2.93,1111122 
SCCF RECON,ioos:station:SCCF:18:1,2017-03-09T09:00:00Z,26.6955,-81.8138,1.5,2.37,1111122 
SCCF RECON,ioos:station:SCCF:18:1,2017-03-09T10:00:00Z,26.6955,-81.8138,1.444,3.61,1111122 
SCCF RECON,ioos:station:SCCF:18:1,2017-03-09T11:00:00Z,26.6955,-81.8138,1.406,3.47,1111122 
SCCF RECON,ioos:station:SCCF:18:1,2017-03-09T12:00:00Z,26.6955,-81.8138,1.358,2.4,1111122 
SCCF RECON,ioos:station:SCCF:18:1,2017-03-09T13:00:00Z,26.6955,-81.8138,1.302,2.63,1111122 
SCCF RECON,ioos:station:SCCF:18:1,2017-03-09T14:00:00Z,26.6955,-81.8138,1.26,2.54,1111122 
SCCF RECON,ioos:station:SCCF:18:1,2017-03-09T15:00:00Z,26.6955,-81.8138,1.247,2.81,1111122 
SCCF RECON,ioos:station:SCCF:18:1,2017-03-09T16:00:00Z,26.6955,-81.8138,1.28,2.7,1111122 
SCCF RECON,ioos:station:SCCF:18:1,2017-03-09T17:00:00Z,26.6955,-81.8138,1.35,2.94,1111122 
SCCF RECON,ioos:station:SCCF:18:1,2017-03-09T18:00:00Z,26.6955,-81.8138,1.395,3.51,1111122 
SCCF RECON,ioos:station:SCCF:18:1,2017-03-09T19:00:00Z,26.6955,-81.8138,1.43,2.95,1111122 
SCCF RECON,ioos:station:SCCF:18:1,2017-03-09T20:00:00Z,26.6955,-81.8138,1.44,3.14,1111122 
SCCF RECON,ioos:station:SCCF:18:1,2017-03-09T21:00:00Z,26.6955,-81.8138,1.445,3.24,1111122 
SCCF RECON,ioos:station:SCCF:18:1,2017-03-09T22:00:00Z,26.6955,-81.8138,1.41,3.44,1111122 
SCCF RECON,ioos:station:SCCF:18:1,2017-03-09T23:00:00Z,26.6955,-81.8138,1.36,3.59,1111122 
SCCF RECON,ioos:station:SCCF:18:1,2017-03-10T00:00:00Z,26.6955,-81.8138,1.31,3.56,1111122 
SCCF RECON,ioos:station:SCCF:18:1,2017-03-10T01:00:00Z,26.6955,-81.8138,1.278,3.45,1111122 
SCCF RECON,ioos:station:SCCF:18:1,2017-03-10T02:00:00Z,26.6955,-81.8138,1.297,3.43,1111122 
SCCF RECON,ioos:station:SCCF:18:1,2017-03-10T03:00:00Z,26.6955,-81.8138,1.37,3.82,1111122 
SCCF RECON,ioos:station:SCCF:18:1,2017-03-10T04:00:00Z,26.6955,-81.8138,1.442,3.82,1111122 
SCCF RECON,ioos:station:SCCF:18:1,2017-03-10T05:00:00Z,26.6955,-81.8138,1.491,3.92,1111122 
SCCF RECON,ioos:station:SCCF:18:1,2017-03-10T06:00:00Z,26.6955,-81.8138,1.53,4.23,1111122 
SCCF RECON,ioos:station:SCCF:18:1,2017-03-10T07:00:00Z,26.6955,-81.8138,1.569,4.5,1111122 
SCCF RECON,ioos:station:SCCF:18:1,2017-03-10T08:00:00Z,26.6955,-81.8138,1.584,3.92,1111122 
SCCF RECON,ioos:station:SCCF:18:1,2017-03-10T09:00:00Z,26.6955,-81.8138,1.52,3.7,1111122 
SCCF RECON,ioos:station:SCCF:18:1,2017-03-10T10:00:00Z,26.6955,-81.8138,1.44,3.24,1111122 
SCCF RECON,ioos:station:SCCF:18:1,2017-03-10T11:00:00Z,26.6955,-81.8138,1.38,3.06,1111122 
SCCF RECON,ioos:station:SCCF:18:1,2017-03-10T12:00:00Z,26.6955,-81.8138,1.343,3.87,1111122 
SCCF RECON,ioos:station:SCCF:18:1,2017-03-10T13:00:00Z,26.6955,-81.8138,1.31,3.27,1111122 
SCCF RECON,ioos:station:SCCF:18:1,2017-03-10T14:00:00Z,26.6955,-81.8138,1.26,3.4,1111122 
SCCF RECON,ioos:station:SCCF:18:1,2017-03-10T15:00:00Z,26.6955,-81.8138,1.22,3.76,1111122 
SCCF RECON,ioos:station:SCCF:18:1,2017-03-10T16:00:00Z,26.6955,-81.8138,1.253,3.85,1111122 
SCCF RECON,ioos:station:SCCF:18:1,2017-03-10T17:00:00Z,26.6955,-81.8138,1.334,4.42,1111122 
SCCF RECON,ioos:station:SCCF:18:1,2017-03-10T18:00:00Z,26.6955,-81.8138,1.409,4.45,1111122 
SCCF RECON,ioos:station:SCCF:18:1,2017-03-10T19:00:00Z,26.6955,-81.8138,1.45,4.6,1111122 
SCCF RECON,ioos:station:SCCF:18:1,2017-03-10T20:00:00Z,26.6955,-81.8138,1.485,4.73,1111122 
SCCF RECON,ioos:station:SCCF:18:1,2017-03-10T21:00:00Z,26.6955,-81.8138,1.508,5.21,1111122 
SCCF RECON,ioos:station:SCCF:18:1,2017-03-10T22:00:00Z,26.6955,-81.8138,1.458,4.52,1111122 
SCCF RECON,ioos:station:SCCF:18:1,2017-03-10T23:00:00Z,26.6955,-81.8138,1.381,4.22,1111122 
SCCF RECON,ioos:station:SCCF:18:1,2017-03-11T00:00:00Z,26.6955,-81.8138,1.33,3.87,1111122 
SCCF RECON,ioos:station:SCCF:18:1,2017-03-11T01:00:00Z,26.6955,-81.8138,1.298,3.85,1111122 
SCCF RECON,ioos:station:SCCF:18:1,2017-03-11T02:00:00Z,26.6955,-81.8138,1.27,4.03,1111122 
SCCF RECON,ioos:station:SCCF:18:1,2017-03-11T03:00:00Z,26.6955,-81.8138,1.256,3.87,1111122 
SCCF RECON,ioos:station:SCCF:18:1,2017-03-11T04:00:00Z,26.6955,-81.8138,1.32,4.16,1111122 
SCCF RECON,ioos:station:SCCF:18:1,2017-03-11T05:00:00Z,26.6955,-81.8138,1.4,4.62,1111122 
SCCF RECON,ioos:station:SCCF:18:1,2017-03-11T06:00:00Z,26.6955,-81.8138,1.48,4.61,1111122 
SCCF RECON,ioos:station:SCCF:18:1,2017-03-11T07:00:00Z,26.6955,-81.8138,1.522,4.69,1111122 
SCCF RECON,ioos:station:SCCF:18:1,2017-03-11T08:00:00Z,26.6955,-81.8138,1.56,4.92,1111122 
SCCF RECON,ioos:station:SCCF:18:1,2017-03-11T09:00:00Z,26.6955,-81.8138,1.543,4.48,1111122 
SCCF RECON,ioos:station:SCCF:18:1,2017-03-11T10:00:00Z,26.6955,-81.8138,1.47,3.99,1111122 
SCCF RECON,ioos:station:SCCF:18:1,2017-03-11T11:00:00Z,26.6955,-81.8138,1.393,3.9,1111122 
SCCF RECON,ioos:station:SCCF:18:1,2017-03-11T12:00:00Z,26.6955,-81.8138,1.34,3.89,1111122 
SCCF RECON,ioos:station:SCCF:18:1,2017-03-11T13:00:00Z,26.6955,-81.8138,1.303,3.87,1111122 
SCCF RECON,ioos:station:SCCF:18:1,2017-03-11T14:00:00Z,26.6955,-81.8138,1.25,3.53,1111122 
SCCF RECON,ioos:station:SCCF:18:1,2017-03-11T15:00:00Z,26.6955,-81.8138,1.193,3.43,1111122 
SCCF RECON,ioos:station:SCCF:18:1,2017-03-11T16:00:00Z,26.6955,-81.8138,1.16,3.41,1111122 
SCCF RECON,ioos:station:SCCF:18:1,2017-03-11T17:00:00Z,26.6955,-81.8138,1.188,3.5,1111122 
SCCF RECON,ioos:station:SCCF:18:1,2017-03-11T18:00:00Z,26.6955,-81.8138,1.263,3.88,1111122 
SCCF RECON,ioos:station:SCCF:18:1,2017-03-11T19:00:00Z,26.6955,-81.8138,1.335,3.85,1111122 
SCCF RECON,ioos:station:SCCF:18:1,2017-03-11T20:00:00Z,26.6955,-81.8138,1.37,3.71,1111122 